Regional Weather Roundup
Issued by NWS

Home | Current Version | Previous Version | Text Only | Print | Product List | Glossary On
Versions: 1 2 3 4 5 6 7 8 9 10 11 12 13 14 15 16 17 18 19 20 21 22 23 24 25 26 27
000
ASUS46 KPQR 270510
RWROR

OREGON REGIONAL WEATHER ROUNDUP
NATIONAL WEATHER SERVICE PORTLAND OR
1000 PM PDT FRI AUG 26 2016

NOTE: "FAIR" INDICATES FEW OR NO CLOUDS BELOW 12,000 FEET WITH
NO SIGNIFICANT WEATHER AND/OR OBSTRUCTIONS TO VISIBILITY.

ORZ001>013-270600-
NORTHWEST OREGON


CITY           SKY/WX    TMP DP  RH WIND       PRES   REMARKS
ASTORIA        CLEAR     61  56  83 SW9       29.87R
NEWPORT        DRZL/FOG  54  54 100 S12G20    29.98R VSB 1
PORTLAND       CLEAR     81  50  33 NW7       29.81R
VANCOUVER WA   CLEAR     82  50  32 NW6       29.81R
SCAPPOOSE      CLEAR     80  48  32 N6        29.81R
HILLSBORO      CLEAR     76  47  35 NW8       29.82S
AURORA         CLEAR     79  48  33 W3        29.83R
MCMINNVILLE    CLEAR     75  49  39 W7        29.84R
SALEM          CLEAR     81  44  27 NW10      29.83R
CORVALLIS        N/A     70  48  46 W17       29.86S
EUGENE         PTCLDY    73  49  42 SW12      29.87R
$$

ORZ021-028-270600-
SOUTHWEST OREGON


CITY           SKY/WX    TMP DP  RH WIND       PRES   REMARKS
NORTH BEND     CLOUDY    55  54  94 SW6       29.99S
BROOKINGS      LGT RAIN  54  53  97 SE6       29.99S FOG
ROSEBURG       PTCLDY    79  45  29 NE5       29.88R
SEXTON SUMMIT  CLEAR     67  44  43 N8        30.03S
MEDFORD        CLEAR     80  41  24 S3        29.88R
$$

ORZ014>016-041-270600-
COLUMBIA GORGE


CITY           SKY/WX    TMP DP  RH WIND       PRES   REMARKS
TROUTDALE      CLEAR     81  50  33 W6        29.80S
THE DALLES     PTCLDY    81  43  26 SW6       29.77R
$$

ORZ029>031-041-044-049-050-061>064-502-503-505>511-270600-
EASTERN OREGON


CITY           SKY/WX    TMP DP  RH WIND       PRES   REMARKS
REDMOND        PTCLDY    68  28  22 SW6       29.96R
BEND             N/A    N/A N/A N/A MISG        N/A
PRINEVILLE     CLEAR     59  30  33 CALM      29.97R
KLAMATH FALLS  PTCLDY    60  44  55 CALM      30.02R
LAKEVIEW       PTCLDY    57  30  35 NW8       30.07S
HERMISTON      PTCLDY    73  41  31 S9        29.78S
PENDLETON      PTCLDY    70  36  28 SE8       29.84F
JOHN DAY       PTCLDY    71  31  22 CALM      29.99R
MEACHAM        PTCLDY    53  33  46 CALM      29.99S
LA GRANDE      CLEAR     64  30  27 S5        29.93F
BAKER CITY     CLEAR     57  37  47 VRB3      29.98R
BURNS          MOCLDY    59  26  28 CALM      30.00S
ROME             N/A     68  23  18 NE3       29.99R
ONTARIO        PTCLDY    67  45  45 CALM      29.89S
$$




USA.gov is the U.S. government's official web portal to all federal, state and local government web resources and services.